Location: Auckland
(36.8670°S, 174.7670°E)
Time: 23:59:40
(UTC+13:00)

Cosmos 968 Rocket - Pass Details

Date: 24 January 2019
Orbit: 742 x 770 km, 74.0° (Epoch: 19 February)

Event Time Altitude Azimuth Distance (km) Brightness Sun altitude
Exits shadow 23:08:48 64° 81° (E) 845 3.4 -24.4°
Drops below altitude 10° 23:13:56 10° 156° (SSE) 2,321 6.3 -25.0°
Sets 23:16:21 0° 158° (SSE) 3,259 7.2 -25.3°
